Home > Weather > Kaliningrad > Past weeks

Flag for Russia Weather for the Past 2 Weeks in Kaliningrad, Russia

Now
39 °F

Passing clouds.


Feels Like: 32 °F
Forecast: 42 / 45 °F
Wind: 10 mph from Southwest

Location: Kaliningrad/Khrabrovo Airport

Current Time: Feb 8, 2016 at 8:18:51 AM

Latest Report: Feb 8, 2016 at 8:00 AM


Visibility: 5 mi

Pressure: 29.62 "Hg

Humidity: 93%

Dew point: 37 °F

Location of KaliningradLocation

Historic Weather in Kaliningrad — Graph

°F

Kaliningrad Temperature Yesterday

Maximum temperature yesterday: 46 °F (at 1:30 PM)
Minimum temperature yesterday: 36 °F (at 4:00 AM)
Average temperature yesterday: 40 °F

High & Low Weather Summary for the Past Weeks

 TemperatureHumidityPressure
High46 °F (Jan 27, 8:30 PM)100% (Jan 24, 2:00 PM)30.33 "Hg (Jan 24, 2:00 PM)
Low21 °F (Jan 24, 7:00 AM)57% (Jan 29, 2:30 PM)29.36 "Hg (Jan 31, 1:00 AM)
Average39 °F88%29.80 "Hg
* Reported Jan 24 7:00 AM — Feb 8 7:00 AM, Kaliningrad, Weather by CustomWeather, © 2016

Note: Actual official high and low records may vary slightly from our data, if they occured in-between our weather recording intervals... More about our weather records

Advertising

Kaliningrad Weather History for the Previous 24 Hours

 ConditionsComfort  
Time TempWeatherWind HumidityBarometerVisibility
7:00 AM
Mon, Feb 8
39 °FPassing clouds.13 mph87%29.62 "HgN/A
6:00 AM37 °FClear.10 mph87%29.62 "Hg10 mi
5:00 AM37 °FClear.8 mph87%29.62 "Hg10 mi
4:00 AM37 °FClear.8 mph87%29.62 "Hg10 mi
3:00 AM36 °FPassing clouds.8 mph87%29.62 "HgN/A
2:00 AM37 °FClear.8 mph81%29.65 "Hg10 mi
1:00 AM37 °FClear.8 mph81%29.65 "Hg10 mi
12:00 AM36 °FClear.8 mph87%29.65 "Hg10 mi
11:00 PM
Sun, Feb 7
37 °FPassing clouds.6 mph81%29.65 "HgN/A
10:30 PM37 °FClear.13 mph81%29.68 "Hg10 mi
10:00 PM39 °FClear.15 mph75%29.68 "Hg10 mi
9:30 PM39 °FClear.13 mph75%29.68 "Hg10 mi
9:00 PM39 °FPassing clouds.10 mph81%29.68 "HgN/A
8:00 PM41 °FClear.13 mph76%29.71 "Hg10 mi
7:30 PM41 °FPassing clouds.13 mph76%29.71 "HgN/A
7:00 PM41 °FSunny.10 mph76%29.71 "Hg10 mi
6:30 PM39 °FPassing clouds.8 mph81%29.71 "HgN/A
6:00 PM43 °FSunny.10 mph71%29.71 "Hg10 mi
5:30 PM43 °FSunny.10 mph71%29.71 "Hg10 mi
5:00 PM45 °FSunny.10 mph66%29.71 "Hg10 mi
4:30 PM45 °FSunny.10 mph71%29.71 "Hg10 mi
4:00 PM46 °FSunny.10 mph66%29.74 "Hg10 mi
3:30 PM46 °FSunny.10 mph66%29.74 "Hg10 mi
3:00 PM46 °FPassing clouds.15 mph66%29.74 "HgN/A
2:30 PM46 °FSunny.17 mph62%29.74 "Hg10 mi
2:00 PM46 °FPassing clouds.15 mph66%29.74 "HgN/A
1:30 PM46 °FPassing clouds.13 mph71%29.77 "HgN/A
1:00 PM45 °FPassing clouds.15 mph76%29.77 "HgN/A
12:30 PM43 °FSunny.13 mph76%29.77 "Hg10 mi
12:00 PM43 °FPassing clouds.13 mph76%29.77 "HgN/A
11:30 AM41 °FSunny.13 mph81%29.80 "Hg10 mi
11:00 AM39 °FSunny.13 mph87%29.80 "Hg10 mi
10:30 AM39 °FSunny.13 mph87%29.80 "Hg10 mi
10:00 AM37 °FClear.13 mph93%29.80 "Hg5 mi
9:30 AM37 °FClear.13 mph87%29.80 "Hg5 mi
9:00 AM36 °FClear.13 mph100%29.80 "Hg5 mi
8:30 AM36 °FClear.10 mph100%29.80 "Hg4 mi
8:00 AM36 °FClear.10 mph100%29.80 "Hg4 mi
Weather by CustomWeather, © 2016

See weather overviewHow to use our weather pages